Location: Newark
(44.3248°N, 23.7839°E)
Time: 11:42:14
(UTC+00:00)

MOZHAYETS 4 - Visible Passes

Search period start: 13 April 2024 00:00
Search period end: 23 April 2024 00:00
Orbit: 654 x 670 km, 98.3° (Epoch: 13 April)

Date Brightness Start Highest point End Pass type
(mag) Time Alt. Az. Time Alt. Az. Time Alt. Az.
13 Apr 8.1 01:23:30 18° SSE 01:26:51 63° ENE 01:31:24 10° N visible
13 Apr 9.4 03:01:45 10° WSW 03:04:11 14° W 03:06:39 10° WNW visible
14 Apr 10.5 00:18:04 10° E 00:20:45 16° ENE 00:23:27 10° NNE visible
14 Apr 7.6 01:53:55 19° S 01:57:09 65° WSW 02:01:44 10° NNW visible
15 Apr 9.6 00:46:52 10° SE 00:50:46 28° ENE 00:54:41 10° N visible
15 Apr 8.4 02:24:21 15° SSW 02:27:35 32° W 02:31:43 10° NNW visible
16 Apr 8.4 01:16:44 12° SSE 01:20:54 55° ENE 01:25:24 10° N visible
16 Apr 9.3 02:55:16 10° SW 02:58:09 16° W 03:01:04 10° NW visible
17 Apr 10.6 00:12:34 10° E 00:14:52 14° ENE 00:17:09 10° NNE visible
17 Apr 7.6 01:47:09 13° S 01:51:10 75° WSW 01:55:47 10° NNW visible
18 Apr 9.8 00:41:07 10° ESE 00:44:49 25° ENE 00:48:34 10° N visible
18 Apr 8.3 02:17:35 11° SSW 02:21:34 37° W 02:25:50 10° NNW visible
19 Apr 8.7 01:10:33 10° SE 01:14:55 47° ENE 01:19:21 10° N visible
19 Apr 9.1 02:48:50 10° SW 02:52:05 19° W 02:55:21 10° NW visible
20 Apr 10.7 00:07:11 10° E 00:08:56 12° ENE 00:10:41 10° NE visible
20 Apr 7.6 01:40:34 10° SSE 01:45:09 87° WSW 01:49:47 10° NNW visible
21 Apr 10.1 00:35:22 10° ESE 00:38:52 22° ENE 00:42:23 10° NNE visible
21 Apr 8.1 02:11:10 10° S 02:15:30 43° W 02:19:54 10° NNW visible
22 Apr 9.0 01:04:38 10° SE 01:08:55 41° ENE 01:13:15 10° N visible
22 Apr 8.9 02:42:27 10° SW 02:46:00 22° W 02:49:33 10° NW visible
